Regional Weather Roundup
Issued by NWS

Home | Current Version | Previous Version | Text Only | Print | Product List | Glossary On
Versions: 1 2 3 4 5 6 7 8 9 10 11 12 13 14 15 16 17 18 19 20 21 22 23 24 25 26 27 28 29 30 31 32 33 34 35 36 37 38 39 40 41 42 43 44 45 46 47 48 49 50
000
ASCA44 KEWX 020820
RWRMX

LATIN AMERICA AND CARIBBEAN REGIONAL WEATHER ROUNDUP
NATIONAL WEATHER SERVICE AUSTIN/SAN ANTONIO TX
300 AM CDT SAT AUG 02 2014

NOTE: "FAIR" INDICATED FEW OR NO CLOUDS BELOW 12,000 FEET WITH NO
SIGNIFICANT WEATHER AND/OR OBSTRUCTIONS TO VISIBILITY.

BAJA CALIFORNIA

CITY           SKY/WX    TMP DP  RH WIND       PRES   REMARKS
TIJUANA          N/A    N/A N/A N/A MISG        N/A

NORTHWESTERN MEXICO

CITY           SKY/WX    TMP DP  RH WIND       PRES   REMARKS
DURANGO        CLOUDY    61  55  82 NW3       30.32F

NORTHEASTERN MEXICO

CITY           SKY/WX    TMP DP  RH WIND       PRES   REMARKS
MONTERREY      LGT RAIN  75  72  88 SW8       30.00F
REYNOSA        CLEAR     79  72  78 E3        29.94
SALTILLO       MOCLDY    70  61  73 CALM      30.24S
CD. VICTORIA   CLEAR     79  70  73 S6G20     29.96

WESTERN MEXICO

CITY           SKY/WX    TMP DP  RH WIND       PRES   REMARKS
DEL BAJIO      CLEAR     66  37  34 CALM      30.28
GUADALAJARA    PTCLDY    64  59  82 N3        30.17
MAZATLAN       CLOUDY    75  72  88 N9        29.87F
P. VALLARTA    PTCLDY    77  73  88 CALM      29.89F
ZACATECAS      PTCLDY    63  46  55 N13       30.33S

CENTRAL MEXICO

CITY           SKY/WX    TMP DP  RH WIND       PRES   REMARKS
MEXICO CITY    PTCLDY    61  48  63 W5        30.34F
MORELIA        CLEAR     55  54  94 CALM      30.22
POZA RICA      PTCLDY    79  72  78 CALM      29.98R
QUERETARO      CLEAR     57  52  82 CALM      30.30S
S. LUIS POTOSI CLEAR     59  43  55 CALM      30.27
TOLUCA         MOCLDY    54  45  71 CALM      30.40F

SOUTHERN MEXICO

CITY           SKY/WX    TMP DP  RH WIND       PRES   REMARKS
ACAPULCO       PTCLDY    84  79  84 NE5       29.86F HX  96

YUCATAN PENINSULA

CITY           SKY/WX    TMP DP  RH WIND       PRES   REMARKS
CANCUN         PTCLDY    75  73  94 CALM      29.93S
COZUMEL        PTCLDY    73  73 100 CALM      29.93F
MERIDA         PTCLDY    79  70  73 E12       29.92F
TAPACHULA      MOCLDY    77  73  88 CALM      29.83F

CENTRAL AMERICA

CITY           SKY/WX    TMP DP  RH WIND       PRES   REMARKS

CARIBBEAN

CITY           SKY/WX    TMP DP  RH WIND       PRES   REMARKS
ARUBA          PTCLDY    81  77  89 E16       29.83S
CURACAO        PTCLDY    81  75  83 E14       29.86F
KINGSTON       PTCLDY    82  73  74 SE12      29.89F
NASSAU         PTCLDY    81  73  78 E5        29.92F
SAN JUAN       MOCLDY    81  72  74 E10       29.95S
SANTO DOMINGO  PTCLDY    75  72  88 VRB3      29.92S
ST. CROIX      MOCLDY    77  73  88 NE14      29.92S
ST. MAARTEN    MOCLDY    81  73  78 E21G39    29.92F
ST. THOMAS     MOCLDY    81  73  78 E18G26    29.93S

$$




USA.gov is the U.S. government's official web portal to all federal, state and local government web resources and services.